[[{"header":{"parameterUnit":"m.s-1","parameterCategory":1,"la1":30.2991,"la2":30.254,"lo1":-89.0895,"lo2":-89.0444,"dy":0.0017,"dx":0.0017,"nx":28,"ny":28,"refTime":"2025-08-19T09:00:00:Z","depth":0,"parameterNumber":2,"parameterNumberName":"U-component_of_WINDS"},"data":[0,0,0,0,0,0,0,0,0,0,0,0,0,0,0,0,0,0,0,0,0,0,0,0,0,0,0,0,0,0,0,0,0,0,0,0,0,0,0,0,0,0,0,0,0,0,0,0,0,0,0,0,0,0,0,0,0,0,0.1702,0.1701,0,0.1611,0.161,0.1609,0.1591,0.1592,0.1593,0.1593,0.1496,0.1493,0.149,0,0,0,0,0,0,0,0,0,0,0,0,0,0.1857,0.1854,0.1702,0.1701,0.1699,0.1611,0.161,0.1608,0.1591,0.1592,0.1593,0.1594,0.1497,0.1494,0.149,0,0,0,0,0,0,0,0,0,0,0,0,0,0.178,0.1853,0.1702,0.168,0.1677,0.1611,0.161,0.1608,0.1591,0.1592,0.1593,0.1594,0.1499,0.1494,0.1489,0.1437,0,0,0.1474,0.1472,0,0,0,0,0,0,0,0,0.1784,0.1774,0.1684,0.1682,0.1678,0.1613,0.1629,0.1551,0.159,0.1623,0.1593,0.1595,0.1534,0.1527,0.1507,0.1433,0.1429,0.1474,0.1471,0.1469,0.1467,0,0,0,0,0,0,0,0.179,0.1778,0.1666,0.1683,0.1679,0.1674,0.1664,0.1614,0.1574,0.1621,0.1619,0.1609,0.1533,0.1512,0.1505,0.1427,0.1474,0.147,0.1467,0.1465,0.1305,0.1304,0,0,0,0,0,0,0.1799,0.1783,0.1668,0.1663,0.1735,0.167,0.1659,0.1633,0.1574,0.1566,0.1608,0.1608,0.1519,0.151,0.1501,0.1436,0.1469,0.1464,0.1461,0.1307,0.1305,0.1304,0,0,0,0,0,0,0.1803,0.1789,0.1672,0.1722,0.1707,0.1666,0.1637,0.1631,0.161,0.1565,0.1557,0.1594,0.152,0.1508,0.1453,0.1432,0.1462,0.1458,0.1308,0.1306,0.1304,0.1306,0,0,0,0,0,0,0.1807,0.1791,0.1771,0.1722,0.1704,0.1627,0.1636,0.1628,0.1602,0.1601,0.155,0.1542,0.152,0.1461,0.1449,0.1426,0.1454,0.131,0.1307,0.1305,0.1308,0.1304,0.1302,0,0,0,0,0,0.1813,0.1775,0.177,0.1757,0.1679,0.1626,0.1616,0.1592,0.16,0.158,0.1551,0.1544,0.1437,0.1455,0.1441,0.1417,0.1311,0.1308,0.1305,0.1309,0.1305,0.1302,0,0,0,0,0,0,0.1821,0.1768,0.1762,0.1707,0.1671,0.1623,0.1597,0.1588,0.1548,0.155,0.1521,0.1509,0.1456,0.1431,0.1453,0.1364,0.1374,0.1369,0.1382,0.1378,0.1375,0.1382,0.145,0,0,0,0,0,0.1816,0.1779,0.1734,0.1689,0.1672,0.1637,0.1613,0.1598,0.1559,0.1543,0.1511,0.1472,0.143,0.1403,0.1361,0.1304,0.1292,0.1281,0.1278,0.1276,0.1271,0.1238,0.1232,0.1294,0.1294,0.1294,0,0,0.1806,0.1773,0.175,0.169,0.166,0.1621,0.1624,0.1582,0.1552,0.1537,0.1483,0.1458,0.1413,0.1357,0.1331,0.1335,0.1251,0.1272,0.127,0.1266,0.1235,0.1229,0.1224,0.1292,0.1292,0.1293,0,0,0.1768,0.1739,0.1699,0.1669,0.1625,0.1602,0.1593,0.1546,0.1529,0.1475,0.1463,0.1426,0.1354,0.1323,0.1297,0.1248,0.1239,0.1235,0.1219,0.1188,0.1183,0.1178,0.116,0.1154,0.123,0.123,0.123,0,0.176,0.1701,0.1678,0.1637,0.1611,0.1596,0.1555,0.1527,0.1471,0.1453,0.1458,0.1368,0.1337,0.1273,0.1261,0.1241,0.1229,0.124,0.1186,0.1181,0.1176,0.1159,0.1152,0.123,0.123,0.123,0.123,0,0.1694,0.1653,0.1626,0.1574,0.1544,0.1503,0.1473,0.1446,0.1434,0.141,0.1356,0.1318,0.1269,0.1253,0.124,0.1187,0.1191,0.1192,0.1201,0.1171,0.1154,0.1147,0.123,0.123,0.123,0.123,0,0,0.1657,0.1594,0.1584,0.156,0.1511,0.1478,0.1436,0.1389,0.1366,0.1328,0.1291,0.1231,0.1232,0.1203,0.1186,0.1159,0.1122,0.1163,0.1161,0.1156,0.1061,0.1061,0.1053,0.1116,0.1115,0.1114,0.1065,0,0.1612,0.1538,0.1516,0.1453,0.1415,0.1401,0.1364,0.1329,0.1307,0.127,0.1244,0.1202,0.1206,0.1188,0.1161,0.1132,0.1102,0.1135,0.1081,0.1079,0.1092,0.1044,0.1044,0.0999,0.1058,0.1057,0.1056,0,0.155,0.1512,0.1446,0.1401,0.1384,0.1352,0.1307,0.1273,0.1233,0.1218,0.1187,0.1172,0.1127,0.114,0.1077,0.11,0.1076,0.1059,0.1057,0.105,0.1065,0.1036,0.0984,0.0978,0.1045,0.1046,0.1047,0,0.1529,0.1461,0.1413,0.1393,0.134,0.1318,0.1294,0.1256,0.1229,0.119,0.1172,0.1127,0.1103,0.1068,0.1042,0.1055,0.0981,0.0992,0.0967,0.0967,0.0951,0.0953,0.0895,0.0937,0.0937,0.0937,0.0938,0,0.1481,0.144,0.1403,0.1373,0.1327,0.1303,0.1258,0.1234,0.12,0.1164,0.1149,0.1116,0.1084,0.1046,0.1025,0.0976,0.0965,0.0951,0.0946,0.0952,0.0954,0.0936,0.0938,0.0936,0.0936,0.0936,0.0937,0,0.1449,0.1423,0.1369,0.1324,0.1312,0.128,0.1241,0.1211,0.1188,0.1143,0.1131,0.1095,0.1049,0.1021,0.0962,0.0949,0.0894,0.089,0.0908,0.0906,0.0882,0.0885,0.081,0.0799,0.0849,0.0849,0.0849,0,0.142,0.1389,0.1341,0.1317,0.1294,0.1255,0.1228,0.1203,0.1175,0.1127,0.1103,0.1057,0.1019,0.0947,0.0915,0.087,0.0865,0.0842,0.0858,0.0865,0.0864,0.0866,0.0863,0.0839,0.0839,0.0838,0.0838,0,0.1371,0.136,0.1322,0.128,0.1249,0.1214,0.1179,0.116,0.1128,0.1098,0.1052,0.1023,0.0965,0.0919,0.0872,0.0846,0.0837,0.0834,0.0825,0.0831,0.0843,0.0836,0.0901,0.0835,0.0835,0.0836,0.0836,0.0836,0.134,0.1312,0.1274,0.1232,0.1204,0.1172,0.1141,0.1115,0.1077,0.1029,0.1016,0.0968,0.0928,0.0864,0.0838,0.08,0.0802,0.079,0.0787,0.0785,0.0784,0.0849,0.0791,0.0791,0.0791,0.0791,0.0791,0,0.129,0.1265,0.1227,0.118,0.1147,0.1142,0.1103,0.1076,0.1035,0.0999,0.0963,0.091,0.0866,0.083,0.0785,0.0761,0.0755,0.075,0.0751,0.0745,0.0784,0.0796,0.0755,0.0755,0.0755,0.0755,0.0755,0.0755,0.126,0.1212,0.1196,0.1134,0.1109,0.1063,0.1041,0.1011,0.0983,0.0925,0.0889,0.0867,0.0831,0.0783,0.0742,0.0732,0.0716,0.0711,0.0701,0.0738,0.0742,0.0746,0.0757,0.0708,0.0708,0.0665,0.0664,0.0664]},{"header":{"parameterUnit":"m.s-1","parameterCategory":1,"la1":30.2991,"la2":30.254,"lo1":-89.0895,"lo2":-89.0444,"dy":0.0017,"dx":0.0017,"nx":28,"ny":28,"refTime":"2025-08-19T09:00:00:Z","depth":0,"parameterNumber":3,"parameterNumberName":"V-component_of_WINDS"},"data":[0,0,0,0,0,0,0,0,0,0,0,0,0,0,0,0,0,0,0,0,0,0,0,0,0,0,0,0,0,0,0,0,0,0,0,0,0,0,0,0,0,0,0,0,0,0,0,0,0,0,0,0,0,0,0,0,0,0,-3.5756,-3.5757,0,-3.5865,-3.5866,-3.5867,-3.5832,-3.5829,-3.5827,-3.5825,-3.5934,-3.5939,-3.5944,0,0,0,0,0,0,0,0,0,0,0,0,0,-3.5515,-3.5519,-3.5755,-3.5757,-3.5758,-3.5864,-3.5866,-3.5867,-3.5832,-3.5829,-3.5827,-3.5824,-3.5932,-3.5938,-3.5945,0,0,0,0,0,0,0,0,0,0,0,0,0,-3.5621,-3.5521,-3.5755,-3.5754,-3.5754,-3.5864,-3.5866,-3.5868,-3.5833,-3.5829,-3.5826,-3.5822,-3.593,-3.5938,-3.5945,-3.6063,0,0,-3.5969,-3.5972,0,0,0,0,0,0,0,0,-3.5615,-3.563,-3.5752,-3.5754,-3.5755,-3.5831,-3.5821,-3.5933,-3.5834,-3.5803,-3.5825,-3.5821,-3.5903,-3.5912,-3.594,-3.6068,-3.6072,-3.5969,-3.5974,-3.5977,-3.5979,0,0,0,0,0,0,0,-3.5608,-3.5625,-3.5798,-3.5754,-3.5756,-3.5747,-3.5758,-3.5842,-3.5871,-3.5805,-3.5803,-3.5817,-3.5903,-3.5933,-3.5943,-3.6074,-3.5969,-3.5976,-3.5981,-3.5984,-3.6303,-3.6306,0,0,0,0,0,0,-3.56,-3.5619,-3.5795,-3.5802,-3.5675,-3.5754,-3.5766,-3.581,-3.587,-3.5876,-3.5819,-3.5815,-3.5922,-3.5934,-3.5946,-3.6087,-3.5977,-3.5984,-3.5989,-3.6299,-3.6303,-3.6308,0,0,0,0,0,0,-3.5595,-3.5616,-3.5791,-3.571,-3.5731,-3.5762,-3.5811,-3.5814,-3.5845,-3.5881,-3.5885,-3.5846,-3.5919,-3.5936,-3.6034,-3.6091,-3.5988,-3.5995,-3.6294,-3.63,-3.6306,-3.6371,0,0,0,0,0,0,-3.5588,-3.5614,-3.566,-3.5711,-3.5736,-3.5878,-3.5815,-3.5819,-3.5858,-3.5853,-3.5906,-3.5912,-3.5918,-3.6023,-3.6042,-3.6099,-3.6001,-3.6289,-3.6297,-3.6304,-3.6363,-3.6378,-3.639,0,0,0,0,0,-3.5579,-3.5673,-3.5662,-3.5684,-3.5793,-3.5881,-3.5895,-3.5901,-3.5863,-3.5908,-3.5931,-3.591,-3.6081,-3.6033,-3.6054,-3.6115,-3.6286,-3.6295,-3.6303,-3.6357,-3.6375,-3.639,0,0,0,0,0,0,-3.5626,-3.568,-3.5668,-3.5781,-3.5827,-3.5875,-3.5932,-3.5919,-3.5976,-3.5968,-3.5972,-3.5985,-3.6086,-3.611,-3.6056,-3.6231,-3.6178,-3.6191,-3.6212,-3.6229,-3.6242,-3.6234,-3.6007,0,0,0,0,0,-3.565,-3.5718,-3.576,-3.5856,-3.5879,-3.5902,-3.594,-3.5941,-3.5988,-3.6007,-3.6037,-3.6083,-3.6147,-3.6189,-3.625,-3.6367,-3.6378,-3.6419,-3.6432,-3.6443,-3.6454,-3.6518,-3.6536,-3.6336,-3.6336,-3.6336,0,0,-3.5699,-3.5737,-3.5779,-3.5866,-3.5902,-3.5971,-3.5919,-3.5994,-3.6045,-3.6018,-3.6113,-3.6137,-3.6188,-3.6297,-3.6346,-3.632,-3.6512,-3.6454,-3.6462,-3.6468,-3.6529,-3.6548,-3.6564,-3.6342,-3.6341,-3.634,0,0,-3.5825,-3.586,-3.5944,-3.598,-3.6035,-3.6049,-3.607,-3.612,-3.6135,-3.6231,-3.6212,-3.6272,-3.6383,-3.642,-3.6454,-3.6593,-3.6576,-3.6613,-3.6683,-3.6744,-3.676,-3.6774,-3.6824,-3.6842,-3.6624,-3.6624,-3.6624,0,-3.5879,-3.5983,-3.5988,-3.6065,-3.6104,-3.6084,-3.6168,-3.6203,-3.6275,-3.6302,-3.6272,-3.641,-3.6443,-3.656,-3.6594,-3.6622,-3.6644,-3.6607,-3.6758,-3.6772,-3.6785,-3.6832,-3.6851,-3.6628,-3.6628,-3.6628,-3.6627,0,-3.6047,-3.6119,-3.618,-3.6251,-3.6296,-3.6377,-3.6393,-3.6438,-3.6435,-3.6453,-3.655,-3.6589,-3.6658,-3.6685,-3.6683,-3.6802,-3.6784,-3.6756,-3.6702,-3.6808,-3.6853,-3.6871,-3.6634,-3.6633,-3.6632,-3.6631,0,0,-3.6205,-3.6277,-3.63,-3.6331,-3.639,-3.6446,-3.6525,-3.6593,-3.6632,-3.6682,-3.6748,-3.6842,-3.6816,-3.6854,-3.6855,-3.691,-3.7018,-3.6875,-3.6876,-3.69,-3.7151,-3.7172,-3.7193,-3.7006,-3.701,-3.7013,-3.7147,0,-3.6335,-3.6475,-3.6482,-3.6609,-3.6676,-3.6658,-3.6727,-3.677,-3.6788,-3.6847,-3.6867,-3.6934,-3.6895,-3.6918,-3.6971,-3.6993,-3.7068,-3.6984,-3.7068,-3.707,-3.7056,-3.7217,-3.7239,-3.7364,-3.7165,-3.7168,-3.717,0,-3.6506,-3.6562,-3.6696,-3.6745,-3.6774,-3.6836,-3.6898,-3.6955,-3.7003,-3.7013,-3.7056,-3.7049,-3.7129,-3.7073,-3.7184,-3.7126,-3.716,-3.7177,-3.7182,-3.719,-3.7127,-3.7229,-3.7404,-3.7423,-3.7197,-3.7195,-3.7193,0,-3.6608,-3.6717,-3.6811,-3.6839,-3.6899,-3.6943,-3.6969,-3.7014,-3.7055,-3.7109,-3.7136,-3.7199,-3.7233,-3.7282,-3.7292,-3.725,-3.7403,-3.7347,-3.7412,-3.7412,-3.7445,-3.7443,-3.7629,-3.7468,-3.7467,-3.7467,-3.7466,0,-3.6752,-3.6835,-3.6858,-3.6916,-3.7008,-3.7014,-3.7105,-3.7129,-3.7169,-3.7231,-3.7218,-3.7276,-3.7286,-3.7347,-3.7355,-3.7445,-3.7461,-3.747,-3.7472,-3.7472,-3.7471,-3.7495,-3.7486,-3.7472,-3.7471,-3.747,-3.7469,0,-3.6882,-3.69,-3.7002,-3.7051,-3.7065,-3.713,-3.7172,-3.7227,-3.7244,-3.7322,-3.7341,-3.7368,-3.7438,-3.7453,-3.7536,-3.7542,-3.7649,-3.7641,-3.7633,-3.7632,-3.7697,-3.7691,-3.7904,-3.7933,-3.7753,-3.7755,-3.7756,0,-3.6973,-3.7037,-3.7092,-3.7133,-3.7162,-3.7228,-3.727,-3.7279,-3.7322,-3.7382,-3.743,-3.7499,-3.7555,-3.7668,-3.7694,-3.7758,-3.7752,-3.7822,-3.7761,-3.7759,-3.7753,-3.7749,-3.7755,-3.7834,-3.7836,-3.7837,-3.7838,0,-3.7133,-3.7139,-3.72,-3.7264,-3.7314,-3.7365,-3.7413,-3.7447,-3.7462,-3.7512,-3.7584,-3.7627,-3.7712,-3.7781,-3.7845,-3.7871,-3.7858,-3.7858,-3.7876,-3.7877,-3.7869,-3.7875,-3.7665,-3.7853,-3.7851,-3.785,-3.7849,-3.7849,-3.7247,-3.7302,-3.735,-3.7418,-3.7455,-3.7501,-3.7555,-3.758,-3.764,-3.7711,-3.7712,-3.7791,-3.7837,-3.7921,-3.7952,-3.8013,-3.7991,-3.8018,-3.8025,-3.8031,-3.8037,-3.786,-3.8025,-3.8024,-3.8024,-3.8024,-3.8023,0,-3.7406,-3.7436,-3.7499,-3.7567,-3.762,-3.7604,-3.7656,-3.7702,-3.7771,-3.7816,-3.7872,-3.7954,-3.8021,-3.8053,-3.8118,-3.8161,-3.8156,-3.8178,-3.8175,-3.8181,-3.8053,-3.8031,-3.8181,-3.8181,-3.8181,-3.8181,-3.818,-3.818,-3.7495,-3.7589,-3.76,-3.7712,-3.7741,-3.7819,-3.785,-3.7892,-3.7928,-3.8021,-3.8077,-3.8097,-3.8137,-3.8205,-3.8265,-3.8273,-3.8297,-3.8322,-3.8327,-3.8206,-3.819,-3.8175,-3.8154,-3.8327,-3.8328,-3.845,-3.8451,-3.8452]}]]